sat.trackr.live / text

‹ back to catalog

STARLINK-30309

NORAD 57632 · 2023-122A

PAYLOAD ACTIVE UNKNOWN

§ Identity

Operator
Country
US
Launch date
2023-08-17
Launch site
AFETR
Launch vehicle
Mass (kg)
RCS (m²)

Purposes: comms

External: N2YO · Heavens-Above · Gunter

§ Orbital elements

Epoch: 2026-05-24T09:32:35.669184Z

Period
94.27 min
Inclination
43.0055°
Eccentricity
0.0002360
Mean motion
15.27566244 rev/d
Perigee alt
481.5 km
Apogee alt
484.7 km
Semi-major
6,861.2 km
B*
-1.8146e-5
RAAN
25.1059°
Arg perigee
243.6609°
Mean anomaly
116.4001°
Rev number
15,378

§ Raw data

STARLINK-303091 57632U 23122A   26144.39763506 -.00000762  00000+0 -18146-4 0  99992 57632  43.0055  25.1059 0002360 243.6609 116.4001 15.27566244153784

JSON: /api/v1/satellites/57632 · /tle

For live sub-satellite position, see the globe view (requires WebGL).

§ Visibility from observer

Set your observer location to see the next 7 days of passes ≥ 10°. The values pass through the URL so the page stays shareable.

No JS? Fill the form by hand. The geolocation button needs JavaScript.